Regional Weather Roundup
Issued by NWS Burlington, VT

Home | Current Version | Previous Version | Text Only | Print | Product List | Glossary On
Versions: 1 2 3 4 5 6 7 8 9 10 11 12 13 14 15 16 17 18 19 20 21 22 23 24 25 26 27 28 29 30 31 32 33 34 35 36 37 38 39 40 41 42 43 44 45 46 47 48 49 50
000
ASUS41 KBTV 232330
RWRBTV
VERMONT REGIONAL WEATHER ROUNDUP
NATIONAL WEATHER SERVICE BURLINGTON VT
700 PM EDT FRI JUN 23 2017

NOTE: "FAIR" INDICATES FEW OR NO CLOUDS BELOW 12,000 FEET WITH NO
SIGNIFICANT WEATHER AND/OR OBSTRUCTIONS TO VISIBILITY.

* THESE REPORTS ARE NOT UNDER NWS QUALITY CONTROL AND/OR DO NOT
  REPORT WEATHER SUCH AS PRECIPITATION AND FOG.

VTZ001>019-240000-
_____VERMONT_____


CITY           SKY/WX    TMP DP  RH WIND       PRES   REMARKS
BURLINGTON     CLOUDY    74  70  87 S9        29.51F
MONTPELIER     LGT RAIN  71  71 100 CALM      29.61F
MORRISVILLE    RAIN      69  68  96 S5        29.56S FOG
ST. JOHNSBURY*   N/A     74  73  97 MISG      29.53F
LYNDONVILLE*   LGT RAIN  72  69  92 S3        29.59S
MIDDLEBURY*    PTSUNNY   73  70  91 SE3       29.54F
RUTLAND*       CLOUDY    73  69  87 E8        29.58S
SPRINGFIELD    PTSUNNY   81  64  56 S6        29.56F
HIGHGATE*      LGT RAIN  72  71  97 S3        29.50F
NEWPORT*       LGT RAIN  72  69  92 S5        29.57R
BENNINGTON     PTSUNNY   78  68  71 SW7       29.59S
SUTTON*          N/A     72 N/A N/A MISG        N/A
ISLAND POND*     N/A     72 N/A N/A CALM        N/A
GALLUP MILLS*    N/A     70 N/A N/A MISG        N/A
UNION VILLAGE*   N/A     75 N/A N/A MISG        N/A
MT. MANSFIELD*   N/A     63 N/A N/A SW22G46     N/A

_____LAKE CHAMPLAIN_____


CITY           SKY/WX    TMP DP  RH WIND       PRES   REMARKS
BURTON ISLAND*   N/A     70  68  94 S7          N/A
COLCHESTER RF*   N/A     68  66  94 S15         N/A
DIAMOND ISL*     N/A     72  70  94 S3          N/A

$$

NYZ007-026>031-035-052-083-087-240000-
_____NORTHERN NEW YORK_____


CITY           SKY/WX    TMP DP  RH WIND       PRES   REMARKS
PLATTSBURGH    LGT RAIN  72  70  93 SE7       29.49F
SARANAC LAKE   CLOUDY    70  70 100 S9        29.55F
MASSENA        CLOUDY    74  71  91 SW8       29.50S
OGDENSBURG*    PTSUNNY   74  70  87 SW3       29.51R
POTSDAM*       RAIN      72  72 100 W8        29.52R
STARK FALLS*     N/A     72 N/A N/A SW8         N/A
WATERTOWN      LGT RAIN  72  71  97 W3        29.51S FOG
FT DRUM        CLOUDY    73  72  94 W3        29.52R
ALBANY         CLOUDY    80  69  69 S14       29.56S
GLENS FALLS    CLOUDY    77  71  82 S6        29.54F

$$
NHZ002-005-011-240000-
_____NEW HAMPSHIRE_____


CITY           SKY/WX    TMP DP  RH WIND       PRES   REMARKS
LEBANON        CLOUDY    82  68  62 S13       29.54S
KEENE          PTSUNNY   79  69  71 S14G21    29.58F
MT WASHINGTON  FOG       55  55 100 S31G37      N/A  VSB 0
PLYMOUTH       CLOUDY    74  72  92 CALM      29.56S
WHITEFIELD     PTSUNNY   78  65  63 S3        29.57S

$$

_____REGIONAL QUEBEC LOCATIONS_____


CITY           SKY/WX    TMP DP  RH WIND       PRES   REMARKS
MONTREAL       LGT RAIN  73  68  83 W6        29.48S
QUEBEC CITY    CLOUDY    64  64 100 NE3       29.50F FOG
SHERBROOKE     LGT RAIN  72  70  94 E5        29.53F

_____REGIONAL ONTARIO LOCATIONS_____


CITY           SKY/WX    TMP DP  RH WIND       PRES   REMARKS
OTTAWA         PTSUNNY   72  70  94 W6        29.49F

______KEY______
VSB  - VISIBILITY IN MILES
WCI  - WIND CHILL INDEX
HX   - HEAT INDEX
$$
NNNN



USA.gov is the U.S. government's official web portal to all federal, state and local government web resources and services.